Location: Martley
(52.2333°N, 2.3667°W)
Time: 20:25:01
(UTC+00:00)

Meteor 1-14 Rocket - Pass Details

Date: 11 December 2019
Orbit: 833 x 920 km, 81.3° (Epoch: 18 January)

Event Time Altitude Azimuth Distance (km) Brightness Sun altitude
Rises 05:41:43 0° 189° (S) 3,527 7.5 -21.1°
Reaches altitude 10° 05:44:09 10° 189° (S) 2,597 6.8 -20.7°
Maximum altitude 05:50:07 87° 103° (ESE) 928 4.4 -19.8°
Drops below altitude 10° 05:56:10 10° 14° (NNE) 2,628 6.8 -18.9°
Sets 05:58:39 0° 14° (NNE) 3,571 7.5 -18.5°
